Location: Boiro
(42.6475°N, 8.8834°W)
Time: 12:18:15
(UTC+01:00)

Altair - Pass Details

Date: 03 December 2021
Orbit: 1501 x 1683 km, 47.2° (Epoch: 21 January)

Event Time Altitude Azimuth Distance (km) Brightness Sun altitude
Rises 20:48:55 0° 282° (WNW) 4,706 11.1 -29.9°
Reaches altitude 10° 20:52:02 10° 285° (WNW) 3,703 10.3 -30.5°
Maximum altitude 21:01:19 69° 9° (N) 1,593 7.4 -32.2°
Enters shadow 21:02:19 65° 45° (NE) 1,632 7.3 -32.4°
